N0NPO Weather Reports


time (UTC)temp
F
wind
direction
speed
knots
gust
knots
rain 1hr
in
rain 24hr
in
rain mn
in
humidity
%
barometer
mb
20260504081703 54 235 11.3 20.0 0.00 0.00 0.00 1 1004.9
20260504081159 53 236 13.0 19.1 0.00 0.00 0.00 1 1004.9
20260504080655 53 239 12.2 16.5 0.00 0.00 0.00 1 1005.2
20260504080152 53 211 10.4 18.2 0.00 0.00 0.00 1 1005.1
20260504070120 55 235 12.2 17.4 0.00 0.00 0.00 1 1006.0
20260504050508 57 230 11.3 16.5 0.00 0.00 0.00 1 1007.3
20260504050005 57 248 12.2 14.8 0.00 0.00 0.00 1 1007.3
20260504045501 57 234 6.1 14.8 0.00 0.00 0.00 1 1007.3
20260504044957 57 238 7.8 13.9 0.00 0.00 0.00 1 1007.4
20260504044455 57 245 9.6 13.0 0.00 0.00 0.00 1 1007.4
20260504043952 57 235 12.2 12.2 0.00 0.00 0.00 1 1007.4
20260504043449 58 235 11.3 14.8 0.00 0.00 0.00 1 1007.4
20260504042947 57 240 7.8 13.9 0.00 0.00 0.00 1 1007.4
20260504042443 57 227 7.0 13.0 0.00 0.00 0.00 1 1007.7
20260504041940 57 224 6.1 13.0 0.00 0.00 0.00 1 1007.7
20260504041436 58 227 7.8 9.6 0.00 0.00 0.00 1 1007.6
20260504040932 58 231 7.0 12.2 0.00 0.00 0.00 1 1007.7
20260504040430 58 228 6.1 10.4 0.00 0.00 0.00 1 1007.7
20260504035925 58 244 5.2 7.8 0.00 0.00 0.00 1 1007.9
20260504035423 58 228 5.2 9.6 0.00 0.00 0.00 1 1007.9
20260504034920 59 236 6.1 9.6 0.00 0.00 0.00 1 1008.0
20260504034417 59 229 5.2 9.6 0.00 0.00 0.00 1 1008.0
20260504033914 59 232 6.1 8.7 0.00 0.00 0.00 1 1007.8
20260504033412 59 249 7.0 8.7 0.00 0.00 0.00 1 1007.8
20260504032909 60 215 3.5 9.6 0.00 0.00 0.00 1 1008.0
20260504032406 60 229 6.1 10.4 0.00 0.00 0.00 1 1007.9
20260504031902 60 229 4.3 9.6 0.00 0.00 0.00 1 1008.0
20260504031359 61 227 5.2 9.6 0.00 0.00 0.00 1 1008.1
20260504030855 61 227 5.2 6.1 0.00 0.00 0.00 1 1008.1
20260504030353 61 192 2.6 5.2 0.00 0.00 0.00 1 1008.0
20260504025849 61 219 2.6 4.3 0.00 0.00 0.00 1 1008.0
20260504025346 61 198 2.6 4.3 0.00 0.00 0.00 1 1008.1
20260504024843 61 257 3.5 3.5 0.00 0.00 0.00 1 1008.1
20260504024339 62 199 1.7 3.5 0.00 0.00 0.00 1 1008.2
20260504023836 62 227 2.6 3.5 0.00 0.00 0.00 1 1008.1
20260504023333 62 187 1.7 3.5 0.00 0.00 0.00 1 1008.2
20260504022828 63 196 1.7 5.2 0.00 0.00 0.00 1 1008.3
20260504022326 63 199 3.5 5.2 0.00 0.00 0.00 1 1008.5
20260504021822 63 202 1.7 4.3 0.00 0.00 0.00 1 1008.3
20260504021320 63 180 0.9 4.3 0.00 0.00 0.00 1 1008.4
20260504020817 63 216 2.6 3.5 0.00 0.00 0.00 1 1008.4
20260504020313 64 195 0.9 2.6 0.00 0.00 0.00 1 1008.4
20260504015809 64 192 0.9 2.6 0.00 0.00 0.00 1 1008.5
20260504015306 65 203 1.7 2.6 0.00 0.00 0.00 1 1008.6
20260504014802 65 192 0.0 1.7 0.00 0.00 0.00 1 1008.8
20260504014258 66 217 1.7 2.6 0.00 0.00 0.00 1 1008.6
20260504013756 66 248 1.7 1.7 0.00 0.00 0.00 1 1008.9
20260504013253 66 240 0.9 1.7 0.00 0.00 0.00 1 1008.9
20260504012749 66 221 1.7 1.7 0.00 0.00 0.00 1 1008.8
20260504012247 67 237 1.7 3.5 0.00 0.00 0.00 1 1008.9
20260504011744 67 238 2.6 3.5 0.00 0.00 0.00 1 1009.0
20260504011241 68 244 2.6 3.5 0.00 0.00 0.00 1 1008.9
20260504010737 68 270 1.7 3.5 0.00 0.00 0.00 1 1009.0
20260504010232 69 297 1.7 2.6 0.00 0.00 0.00 1 1009.3
20260504005730 69 240 2.6 5.2 0.00 0.00 0.00 1 1009.5
20260504005227 69 237 1.7 5.2 0.00 0.00 0.00 1 1009.5
20260504004724 69 252 4.3 7.0 0.00 0.00 0.00 1 1009.5
20260504004221 70 254 4.3 5.2 0.00 0.00 0.00 1 1009.6
20260504003718 70 257 3.5 7.0 0.00 0.00 0.00 1 1009.7
20260504003215 70 252 7.0 7.0 0.00 0.00 0.00 1 1009.8
20260504002712 70 292 2.6 4.3 0.00 0.00 0.00 1 1009.9
20260504002209 70 270 4.3 6.1 0.00 0.00 0.00 1 1009.8
20260504001707 70 263 5.2 7.8 0.00 0.00 0.00 1 1009.9
20260504001203 70 257 5.2 7.8 0.00 0.00 0.00 1 1009.9
20260504000700 70 259 4.3 7.0 0.00 0.00 0.00 1 1010.3
20260504000157 70 261 2.6 7.0 0.00 0.00 0.00 1 1010.3
20260503235655 70 254 6.1 8.7 0.00 0.00 0.00 1 1010.5
20260503235151 70 252 4.3 7.8 0.00 0.00 0.00 1 1010.5
20260503234649 70 292 5.2 7.8 0.00 0.00 0.00 1 1010.7
20260503234148 71 288 1.7 6.1 0.00 0.00 0.00 1 1010.6
20260503233644 70 311 0.0 8.7 0.00 0.00 0.00 1 1010.8
20260503233139 70 300 4.3 7.8 0.00 0.00 0.00 1 1010.8
20260503232637 70 332 7.8 8.7 0.00 0.00 0.00 1 1011.1
20260503232134 70 277 6.1 11.3 0.00 0.00 0.00 1 1010.9
20260503231632 70 292 6.1 9.6 0.00 0.00 0.00 1 1011.1
20260503231128 70 296 2.6 7.0 0.00 0.00 0.00 1 1011.4
20260503230625 70 255 10.4 13.9 0.00 0.00 0.00 1 1011.4
20260503230122 69 235 6.1 7.8 0.00 0.00 0.00 1 1011.5
20260503225620 70 285 7.0 8.7 0.00 0.00 0.00 1 1011.4
20260503225119 70 284 6.1 7.0 0.00 0.00 0.00 1 1011.4
20260503224617 70 241 1.7 10.4 0.00 0.00 0.00 1 1011.5
20260503224115 70 318 0.0 12.2 0.00 0.00 0.00 1 1011.7
20260503223613 69 295 5.2 9.6 0.00 0.00 0.00 1 1011.7
20260503223108 69 306 7.8 12.2 0.00 0.00 0.00 1 1011.8
20260503222606 70 290 2.6 9.6 0.00 0.00 0.00 1 1012.0
20260503222104 69 289 5.2 10.4 0.00 0.00 0.00 1 1012.0
20260503221602 68 239 9.6 11.3 0.00 0.00 0.00 1 1012.3
20260503221059 68 294 5.2 8.7 0.00 0.00 0.00 1 1012.2
20260503220555 69 326 4.3 10.4 0.00 0.00 0.00 1 1012.3
20260503220052 69 307 5.2 8.7 0.00 0.00 0.00 1 1012.5
20260503215549 69 281 7.0 11.3 0.00 0.00 0.00 1 1012.3
20260503215046 68 274 9.6 11.3 0.00 0.00 0.00 1 1012.5
20260503214544 68 303 7.8 14.8 0.00 0.00 0.00 1 1012.6
20260503214040 69 294 3.5 9.6 0.00 0.00 0.00 1 1012.7
20260503213539 69 315 7.0 8.7 0.00 0.00 0.00 1 1012.7
20260503213035 70 286 7.8 14.8 0.00 0.00 0.00 1 1013.0
20260503212533 68 247 8.7 12.2 0.00 0.00 0.00 1 1013.0
20260503212030 68 317 4.3 10.4 0.00 0.00 0.00 1 1013.1
20260503211527 68 315 2.6 8.7 0.00 0.00 0.00 1 1013.2
20260503211023 68 312 7.0 9.6 0.00 0.00 0.00 1 1013.4
20260503210520 67 254 11.3 16.5 0.00 0.00 0.00 1 1013.6
20260503210015 68 292 8.7 13.9 0.00 0.00 0.00 1 1013.6
20260503205512 67 274 9.6 13.0 0.00 0.00 0.00 1 1013.8
20260503205009 67 258 7.0 14.8 0.00 0.00 0.00 1 1013.8
20260503204506 68 281 8.7 13.0 0.00 0.00 0.00 1 1014.0
20260503204002 68 276 8.7 14.8 0.00 0.00 0.00 1 1014.0
20260503203500 67 277 9.6 13.0 0.00 0.00 0.00 1 1013.9
20260503202956 67 253 7.8 13.0 0.00 0.00 0.00 1 1014.1
20260503202455 67 287 12.2 13.0 0.00 0.00 0.00 1 1014.3
20260503201953 66 260 10.4 10.4 0.00 0.00 0.00 1 1014.5
20260503201450 66 294 10.4 16.5 0.00 0.00 0.00 1 1014.8
20260503200947 67 308 4.3 7.8 0.00 0.00 0.00 1 1014.6
20260503200444 65 256 6.1 13.0 0.00 0.00 0.00 1 1014.9
20260503195940 65 279 7.8 17.4 0.00 0.00 0.00 1 1014.8
20260503195438 65 269 10.4 17.4 0.00 0.00 0.00 1 1014.8
20260503194934 65 264 9.6 16.5 0.00 0.00 0.00 1 1015.0
20260503194431 65 261 13.9 13.9 0.00 0.00 0.00 1 1014.9
20260503193926 66 275 13.0 14.8 0.00 0.00 0.00 1 1015.0
20260503193422 65 312 7.8 13.9 0.00 0.00 0.00 1 1015.0
20260503192918 65 260 7.0 11.3 0.00 0.00 0.00 1 1015.2
20260503192414 65 261 6.1 15.6 0.00 0.00 0.00 1 1015.1
20260503191910 65 272 8.7 17.4 0.00 0.00 0.00 1 1015.2
20260503191408 65 273 8.7 15.6 0.00 0.00 0.00 1 1015.3
20260503190904 65 246 18.2 18.2 0.00 0.00 0.00 1 1015.6
20260503190401 64 293 12.2 19.1 0.00 0.00 0.00 1 1015.6
20260503185858 65 295 12.2 19.1 0.00 0.00 0.00 1 1015.8
20260503185355 65 255 10.4 13.0 0.00 0.00 0.00 1 1015.8
20260503184854 64 275 7.8 17.4 0.00 0.00 0.00 1 1015.9
20260503184350 64 258 13.9 17.4 0.00 0.00 0.00 1 1015.7
20260503183846 64 282 13.0 17.4 0.00 0.00 0.00 1 1015.9
20260503183344 64 277 10.4 13.9 0.00 0.00 0.00 1 1016.0
20260503182841 64 297 14.8 15.6 0.00 0.00 0.00 1 1016.0
20260503182340 63 257 13.9 20.0 0.00 0.00 0.00 1 1016.2
20260503181837 64 257 8.7 18.2 0.00 0.00 0.00 1 1016.2
20260503181334 64 273 13.0 17.4 0.00 0.00 0.00 1 1016.3
20260503180830 63 274 9.6 19.1 0.00 0.00 0.00 1 1016.3
20260503180328 63 274 6.1 19.1 0.00 0.00 0.00 1 1016.4
20260503175824 63 281 18.2 18.2 0.00 0.00 0.00 1 1016.3
20260503175323 65 283 12.2 12.2 0.00 0.00 0.00 1 1016.4
20260503174818 64 290 12.2 15.6 0.00 0.00 0.00 1 1016.9
20260503174316 62 296 9.6 15.6 0.00 0.00 0.00 1 1016.7
20260503173811 64 300 4.3 16.5 0.00 0.00 0.00 1 1016.7
20260503173308 63 271 8.7 14.8 0.00 0.00 0.00 1 1016.9
20260503172805 63 280 5.2 10.4 0.00 0.00 0.00 1 1016.9
20260503172305 63 253 11.3 13.0 0.00 0.00 0.00 1 1017.0
20260503171758 63 305 6.1 13.9 0.00 0.00 0.00 1 1016.9
20260503171255 63 282 7.0 13.0 0.00 0.00 0.00 1 1017.2
20260503170752 64 258 7.8 12.2 0.00 0.00 0.00 1 1016.9
20260503170249 62 290 7.8 14.8 0.00 0.00 0.00 1 1017.2
20260503160211 59 264 7.8 8.7 0.00 0.00 0.00 1 1017.4
20260503150641 56 249 2.6 7.8 0.00 0.00 0.00 1 1017.8
20260503150137 55 239 1.7 6.1 0.00 0.00 0.00 1 1017.9
20260503131031 50 273 6.1 9.6 0.00 0.00 0.00 1 1018.1
20260503130528 50 290 6.1 7.0 0.00 0.00 0.00 1 1018.0
20260503110419 46 304 7.8 10.4 0.00 0.00 0.00 1 1017.2